TimeCDT,TemperatureF,Dew PointF,Humidity,Sea Level PressureIn,VisibilityMPH,Wind Direction,Wind SpeedMPH,Gust SpeedMPH,PrecipitationIn,Events,Conditions,WindDirDegrees,DateUTC
12:15 AM,53.6,42.8,67,30.08,10.0,North,4.6,-,N/A,,Clear,10,2013-04-02 05:15:00
12:35 AM,51.8,42.8,71,30.08,10.0,NNW,4.6,-,N/A,,Clear,340,2013-04-02 05:35:00
12:55 AM,51.8,42.8,71,30.08,10.0,NNW,4.6,-,N/A,,Clear,340,2013-04-02 05:55:00
1:15 AM,50.0,42.8,76,30.08,10.0,North,4.6,-,N/A,,Clear,350,2013-04-02 06:15:00
1:35 AM,48.2,41.0,76,30.08,10.0,Calm,Calm,-,N/A,,Clear,0,2013-04-02 06:35:00
1:55 AM,46.4,42.8,87,30.09,10.0,Calm,Calm,-,N/A,,Clear,0,2013-04-02 06:55:00
2:15 AM,48.2,42.8,82,30.09,10.0,Calm,Calm,-,N/A,,Clear,0,2013-04-02 07:15:00
2:35 AM,46.4,39.2,76,30.09,10.0,North,4.6,-,N/A,,Clear,10,2013-04-02 07:35:00
2:55 AM,46.4,39.2,76,30.10,10.0,Calm,Calm,-,N/A,,Clear,0,2013-04-02 07:55:00
3:15 AM,44.6,39.2,81,30.10,10.0,Calm,Calm,-,N/A,,Clear,0,2013-04-02 08:15:00
3:35 AM,44.6,39.2,81,30.10,10.0,Calm,Calm,-,N/A,,Clear,0,2013-04-02 08:35:00
3:55 AM,46.4,39.2,76,30.11,10.0,Calm,Calm,-,N/A,,Clear,0,2013-04-02 08:55:00
4:15 AM,44.6,39.2,81,30.12,10.0,North,3.5,-,N/A,,Clear,360,2013-04-02 09:15:00
4:35 AM,44.6,39.2,81,30.13,10.0,NNW,3.5,-,N/A,,Clear,330,2013-04-02 09:35:00
4:55 AM,46.4,39.2,76,30.14,10.0,NNW,6.9,-,N/A,,Partly Cloudy,340,2013-04-02 09:55:00
5:15 AM,46.4,37.4,71,30.15,10.0,North,4.6,-,N/A,,Partly Cloudy,10,2013-04-02 10:15:00
5:35 AM,44.6,37.4,76,30.16,10.0,North,5.8,-,N/A,,Clear,360,2013-04-02 10:35:00
5:55 AM,44.6,37.4,76,30.16,10.0,North,5.8,-,N/A,,Clear,10,2013-04-02 10:55:00
6:15 AM,44.6,37.4,76,30.16,10.0,NNE,6.9,-,N/A,,Clear,30,2013-04-02 11:15:00
6:35 AM,44.6,37.4,76,30.18,10.0,NNE,4.6,-,N/A,,Clear,20,2013-04-02 11:35:00
6:55 AM,44.6,37.4,76,30.19,10.0,NNE,4.6,-,N/A,,Clear,20,2013-04-02 11:55:00
7:15 AM,46.4,37.4,71,30.20,10.0,NNE,6.9,-,N/A,,Clear,30,2013-04-02 12:15:00
7:35 AM,46.4,33.8,62,30.20,10.0,NE,10.4,-,N/A,,Clear,40,2013-04-02 12:35:00
7:55 AM,48.2,33.8,58,30.20,10.0,NNE,12.7,-,N/A,,Clear,30,2013-04-02 12:55:00
8:15 AM,48.2,32.0,54,30.20,10.0,NNE,10.4,-,N/A,,Clear,30,2013-04-02 13:15:00
8:35 AM,48.2,30.2,50,30.20,10.0,NNE,15.0,-,N/A,,Clear,30,2013-04-02 13:35:00
8:55 AM,50.0,28.4,43,30.20,10.0,NE,8.1,-,N/A,,Clear,50,2013-04-02 13:55:00
9:35 AM,51.8,30.2,44,30.22,10.0,NNE,12.7,16.1,N/A,,Scattered Clouds,20,2013-04-02 14:35:00
9:55 AM,53.6,28.4,38,30.22,10.0,NE,8.1,-,N/A,,Partly Cloudy,50,2013-04-02 14:55:00
10:15 AM,53.6,28.4,38,30.22,10.0,NE,10.4,-,N/A,,Clear,40,2013-04-02 15:15:00
10:35 AM,55.4,30.2,38,30.22,10.0,NE,6.9,-,N/A,,Clear,50,2013-04-02 15:35:00
10:55 AM,55.4,28.4,36,30.21,10.0,NE,8.1,-,N/A,,Clear,40,2013-04-02 15:55:00
11:15 AM,57.2,30.2,36,30.21,10.0,NE,9.2,-,N/A,,Clear,50,2013-04-02 16:15:00
11:35 AM,57.2,30.2,36,30.21,10.0,ENE,5.8,-,N/A,,Mostly Cloudy,60,2013-04-02 16:35:00
11:55 AM,57.2,30.2,36,30.20,10.0,North,8.1,-,N/A,,Mostly Cloudy,10,2013-04-02 16:55:00
12:15 PM,57.2,30.2,36,30.20,10.0,ENE,3.5,-,N/A,,Partly Cloudy,70,2013-04-02 17:15:00
12:35 PM,59.0,32.0,36,30.19,10.0,North,4.6,-,N/A,,Clear,350,2013-04-02 17:35:00
12:55 PM,60.8,33.8,36,30.18,10.0,Calm,Calm,-,N/A,,Clear,0,2013-04-02 17:55:00
1:15 PM,62.6,33.8,34,30.18,10.0,NNE,10.4,-,N/A,,Clear,30,2013-04-02 18:15:00
1:35 PM,62.6,35.6,37,30.18,10.0,NW,10.4,17.3,N/A,,Partly Cloudy,310,2013-04-02 18:35:00
1:55 PM,60.8,32.0,34,30.17,10.0,NNW,10.4,-,N/A,,Scattered Clouds,340,2013-04-02 18:55:00
2:15 PM,60.8,33.8,36,30.16,10.0,WNW,4.6,-,N/A,,Mostly Cloudy,300,2013-04-02 19:15:00
2:35 PM,62.6,33.8,34,30.15,10.0,NE,5.8,-,N/A,,Mostly Cloudy,40,2013-04-02 19:35:00
2:55 PM,64.4,32.0,30,30.15,10.0,NE,8.1,-,N/A,,Scattered Clouds,40,2013-04-02 19:55:00
3:15 PM,64.4,33.8,32,30.14,10.0,North,10.4,-,N/A,,Mostly Cloudy,10,2013-04-02 20:15:00
3:35 PM,64.4,33.8,32,30.14,10.0,NNE,9.2,-,N/A,,Scattered Clouds,20,2013-04-02 20:35:00
3:55 PM,62.6,33.8,34,30.13,10.0,North,9.2,-,N/A,,Clear,10,2013-04-02 20:55:00
4:15 PM,62.6,32.0,32,30.13,10.0,North,10.4,-,N/A,,Clear,10,2013-04-02 21:15:00
4:35 PM,60.8,33.8,36,30.13,10.0,NW,8.1,-,N/A,,Clear,310,2013-04-02 21:35:00
4:55 PM,60.8,33.8,36,30.13,10.0,North,10.4,-,N/A,,Clear,360,2013-04-02 21:55:00
5:15 PM,60.8,33.8,36,30.13,10.0,NNW,6.9,-,N/A,,Clear,340,2013-04-02 22:15:00
5:35 PM,60.8,33.8,36,30.14,10.0,North,6.9,-,N/A,,Clear,360,2013-04-02 22:35:00
5:55 PM,60.8,33.8,36,30.15,10.0,NNE,10.4,-,N/A,,Clear,20,2013-04-02 22:55:00
6:15 PM,59.0,32.0,36,30.15,10.0,NNW,6.9,-,N/A,,Clear,330,2013-04-02 23:15:00
6:35 PM,57.2,32.0,38,30.14,10.0,North,6.9,-,N/A,,Clear,350,2013-04-02 23:35:00
6:55 PM,57.2,33.8,41,30.14,10.0,NNE,6.9,-,N/A,,Mostly Cloudy,20,2013-04-02 23:55:00
7:15 PM,55.4,33.8,44,30.14,10.0,NNE,6.9,-,N/A,,Scattered Clouds,20,2013-04-03 00:15:00
7:35 PM,55.4,30.2,38,30.14,10.0,North,8.1,-,N/A,,Clear,10,2013-04-03 00:35:00
7:55 PM,53.6,30.2,41,30.15,10.0,NNW,5.8,-,N/A,,Clear,330,2013-04-03 00:55:00
8:15 PM,53.6,30.2,41,30.14,10.0,NNE,8.1,-,N/A,,Clear,20,2013-04-03 01:15:00
8:35 PM,51.8,28.4,41,30.15,10.0,North,8.1,-,N/A,,Clear,350,2013-04-03 01:35:00
8:55 PM,51.8,28.4,41,30.17,10.0,North,6.9,-,N/A,,Clear,350,2013-04-03 01:55:00
9:15 PM,51.8,28.4,41,30.18,10.0,North,4.6,-,N/A,,Scattered Clouds,10,2013-04-03 02:15:00
9:35 PM,51.8,28.4,41,30.19,10.0,NNW,5.8,-,N/A,,Scattered Clouds,340,2013-04-03 02:35:00
9:55 PM,51.8,28.4,41,30.18,10.0,North,8.1,-,N/A,,Partly Cloudy,360,2013-04-03 02:55:00
10:15 PM,50.0,26.6,40,30.18,10.0,North,5.8,-,N/A,,Clear,360,2013-04-03 03:15:00
10:35 PM,50.0,26.6,40,30.18,10.0,North,8.1,-,N/A,,Partly Cloudy,360,2013-04-03 03:35:00
10:55 PM,50.0,26.6,40,30.18,10.0,North,9.2,-,N/A,,Partly Cloudy,10,2013-04-03 03:55:00
11:15 PM,48.2,26.6,43,30.18,10.0,North,9.2,-,N/A,,Clear,10,2013-04-03 04:15:00
11:35 PM,48.2,26.6,43,30.17,10.0,NNE,11.5,-,N/A,,Clear,30,2013-04-03 04:35:00
11:55 PM,48.2,26.6,43,30.17,10.0,NNE,9.2,-,N/A,,Clear,20,2013-04-03 04:55:00